GW7044 Weather Reports


time (UTC)temp
F
wind
direction
speed
knots
gust
knots
rain 1hr
in
rain 24hr
in
rain mn
in
humidity
%
barometer
mb
20260508203524 59 193 6.1 9.6 0.00 0.00 0.00 48 1006.2
20260508203018 59 178 7.0 12.2 0.00 0.00 0.00 47 1006.2
20260508202611 59 198 6.1 11.3 0.00 0.00 0.00 48 1006.2
20260508202055 58 193 6.1 11.3 0.00 0.00 0.00 47 1006.2
20260508201543 58 189 5.2 9.6 0.00 0.00 0.00 46 1006.2
20260508201035 57 181 6.1 9.6 0.00 0.00 0.00 48 1006.2
20260508200523 58 190 5.2 11.3 0.00 0.00 0.00 46 1006.2
20260508200114 58 192 5.2 11.3 0.00 0.00 0.00 47 1006.3
20260508195603 57 202 5.2 8.7 0.00 0.00 0.00 47 1006.2
20260508195133 58 202 5.2 7.0 0.00 0.00 0.00 47 1006.2
20260508194539 57 197 5.2 8.7 0.00 0.00 0.00 47 1006.1
20260508194034 58 213 5.2 9.6 0.00 0.00 0.00 47 1006.1
20260508193520 59 187 5.2 11.3 0.00 0.00 0.00 48 1006.0
20260508193114 58 204 7.0 10.4 0.00 0.00 0.00 49 1006.0
20260508192600 59 208 9.6 11.3 0.00 0.00 0.00 47 1006.1
20260508192050 59 205 7.0 12.2 0.00 0.00 0.00 48 1006.2
20260508191535 59 207 7.0 13.9 0.00 0.00 0.00 49 1006.2
20260508191029 58 215 5.2 8.7 0.00 0.00 0.00 53 1006.2
20260508190523 57 207 5.2 10.4 0.00 0.00 0.00 51 1006.3
20260508190020 57 208 6.1 10.4 0.00 0.00 0.00 53 1006.3
20260508185618 58 210 5.2 8.7 0.00 0.00 0.00 52 1006.4
20260508185105 58 191 4.3 7.8 0.00 0.00 0.00 55 1006.4
20260508184556 56 196 3.5 7.8 0.00 0.00 0.00 57 1006.5
20260508184050 55 202 5.2 8.7 0.00 0.00 0.00 55 1006.6
20260508183541 55 209 6.1 9.6 0.00 0.00 0.00 57 1006.6
20260508183035 54 205 5.2 12.2 0.00 0.00 0.00 56 1006.7
20260508182525 55 207 6.1 12.2 0.00 0.00 0.00 55 1006.8
20260508182111 55 207 7.8 13.9 0.00 0.00 0.00 53 1006.6
20260508181608 55 207 7.8 11.3 0.00 0.00 0.00 49 1006.5
20260508181101 55 188 6.1 14.8 0.00 0.00 0.00 47 1006.3
20260508180555 56 176 6.1 14.8 0.00 0.00 0.00 44 1006.0
20260508180045 57 171 6.1 14.8 0.00 0.00 0.00 42 1005.9
20260508175538 58 191 6.1 13.9 0.00 0.00 0.00 41 1005.7
20260508175029 58 201 4.3 7.0 0.00 0.00 0.00 40 1005.6
20260508174523 59 190 3.5 5.2 0.00 0.00 0.00 41 1005.5
20260508174018 58 198 2.6 5.2 0.00 0.00 0.00 40 1005.5
20260508173606 59 196 3.5 6.1 0.00 0.00 0.00 39 1005.6
20260508173117 59 183 3.5 6.1 0.00 0.00 0.00 39 1005.6
20260508172556 59 178 2.6 4.3 0.00 0.00 0.00 41 1005.7
20260508172044 60 186 3.5 7.8 0.00 0.00 0.00 40 1005.6
20260508171532 60 171 2.6 9.6 0.00 0.00 0.00 38 1005.7
20260508171020 59 188 4.3 9.6 0.00 0.00 0.00 42 1005.7
20260508170619 58 167 2.6 4.3 0.00 0.00 0.00 42 1005.8
20260508170147 58 199 3.5 6.1 0.00 0.00 0.00 41 1005.9
20260508165557 59 200 4.3 6.1 0.00 0.00 0.00 38 1005.9
20260508165111 59 169 4.3 6.1 0.00 0.00 0.00 39 1005.9
20260508164610 59 183 3.5 7.8 0.00 0.00 0.00 39 1006.0
20260508164040 59 195 5.2 9.6 0.00 0.00 0.00 39 1006.1
20260508163540 60 167 4.3 8.7 0.00 0.00 0.00 40 1006.3
20260508163040 59 197 4.3 9.6 0.00 0.00 0.00 39 1006.3
20260508162608 58 198 3.5 7.0 0.00 0.00 0.00 38 1006.4
20260508162124 60 206 4.3 7.8 0.00 0.00 0.00 38 1006.4
20260508161634 60 188 4.3 7.8 0.00 0.00 0.00 38 1006.4
20260508161043 61 195 5.2 7.8 0.00 0.00 0.00 40 1006.5
20260508160558 59 200 4.3 7.8 0.00 0.00 0.00 42 1006.5
20260508160028 59 172 4.3 8.7 0.00 0.00 0.00 40 1006.5
20260508155618 59 150 2.6 9.6 0.00 0.00 0.00 42 1006.4
20260508155126 59 194 7.0 10.4 0.00 0.00 0.00 42 1006.5
20260508154553 59 154 2.6 7.0 0.00 0.00 0.00 42 1006.4
20260508154044 59 198 3.5 6.1 0.00 0.00 0.00 42 1006.4
20260508153539 59 175 3.5 7.8 0.00 0.00 0.00 42 1006.3
20260508153030 59 98 1.7 4.3 0.00 0.00 0.00 43 1006.6
20260508152525 59 162 4.3 7.8 0.00 0.00 0.00 43 1006.8
20260508152136 59 183 2.6 6.1 0.00 0.00 0.00 43 1006.6
20260508151603 59 129 2.6 5.2 0.00 0.00 0.00 43 1006.8
20260508151114 58 193 2.6 6.1 0.00 0.00 0.00 46 1006.7
20260508150540 58 196 3.5 7.0 0.00 0.00 0.00 44 1006.8
20260508150036 58 180 2.6 5.2 0.00 0.00 0.00 45 1006.8
20260508145522 57 210 3.5 7.0 0.00 0.00 0.00 46 1006.9
20260508145108 57 193 4.3 7.8 0.00 0.00 0.00 45 1006.9
20260508144622 57 202 4.3 7.8 0.00 0.00 0.00 45 1006.9
20260508144113 57 178 4.3 7.8 0.00 0.00 0.00 46 1007.0
20260508143540 57 186 4.3 8.7 0.00 0.00 0.00 45 1007.0
20260508143035 57 156 3.5 7.0 0.00 0.00 0.00 46 1007.2
20260508142522 56 187 2.6 6.1 0.00 0.00 0.00 47 1007.1
20260508142115 56 211 2.6 6.1 0.00 0.00 0.00 45 1007.1
20260508141606 56 203 5.2 8.7 0.00 0.00 0.00 45 1007.0
20260508141053 56 198 3.5 7.8 0.00 0.00 0.00 47 1007.1
20260508140548 55 201 3.5 7.8 0.00 0.00 0.00 48 1007.3
20260508140054 56 196 3.5 7.8 0.00 0.00 0.00 46 1007.2
20260508135554 56 192 2.6 5.2 0.00 0.00 0.00 48 1007.2
20260508135041 55 198 2.6 4.3 0.00 0.00 0.00 48 1007.3
20260508134612 55 193 3.5 5.2 0.00 0.00 0.00 47 1007.3
20260508134108 55 194 2.6 7.0 0.00 0.00 0.00 48 1007.5
20260508133554 54 178 1.7 7.0 0.00 0.00 0.00 49 1007.4
20260508133042 53 211 5.2 8.7 0.00 0.00 0.00 47 1007.5
20260508132530 54 204 5.2 8.7 0.00 0.00 0.00 47 1007.5
20260508132041 54 187 4.3 8.7 0.00 0.00 0.00 49 1007.5
20260508131612 53 203 3.5 8.7 0.00 0.00 0.00 48 1007.6
20260508131108 53 203 2.6 7.8 0.00 0.00 0.00 49 1007.6
20260508130558 53 189 3.5 7.8 0.00 0.00 0.00 50 1007.7
20260508130054 53 178 3.5 7.8 0.00 0.00 0.00 50 1007.5
20260508125540 52 193 4.3 7.8 0.00 0.00 0.00 50 1007.5
20260508125036 52 208 3.5 7.0 0.00 0.00 0.00 51 1007.6
20260508124526 52 181 4.3 7.0 0.00 0.00 0.00 51 1007.6
20260508124021 51 200 2.6 5.2 0.00 0.00 0.00 52 1007.5
20260508123613 51 195 3.5 5.2 0.00 0.00 0.00 52 1007.6
20260508123118 51 170 5.2 9.6 0.00 0.00 0.00 53 1007.6
20260508122626 50 207 3.5 7.0 0.00 0.00 0.00 52 1007.5
20260508122056 50 220 3.5 5.2 0.00 0.00 0.00 52 1007.4
20260508121543 50 222 2.6 6.1 0.00 0.00 0.00 54 1007.4
20260508121115 50 188 2.6 4.3 0.00 0.00 0.00 55 1007.4
20260508120614 49 201 1.7 4.3 0.00 0.00 0.00 55 1007.4
20260508120101 49 165 1.7 4.3 0.00 0.00 0.00 55 1007.5
20260508115556 48 210 3.5 7.8 0.00 0.00 0.00 53 1007.4
20260508115043 48 188 3.5 5.2 0.00 0.00 0.00 54 1007.5
20260508114534 48 204 1.7 4.3 0.00 0.00 0.00 55 1007.5
20260508114021 47 202 2.6 4.3 0.00 0.00 0.00 57 1007.5
20260508113633 46 183 1.7 4.3 0.00 0.00 0.00 58 1007.5
20260508113107 46 196 2.6 5.2 0.00 0.00 0.00 58 1007.5
20260508112614 46 193 2.6 5.2 0.00 0.00 0.00 58 1007.4
20260508112045 46 166 1.7 3.5 0.00 0.00 0.00 58 1007.4
20260508111531 46 176 1.7 3.5 0.00 0.00 0.00 58 1007.3
20260508111021 46 178 2.6 3.5 0.00 0.00 0.00 57 1007.3
20260508110517 46 193 2.6 4.3 0.00 0.00 0.00 58 1007.3
20260508110149 45 190 3.5 4.3 0.00 0.00 0.00 59 1007.2
20260508105555 45 175 2.6 3.5 0.00 0.00 0.00 61 1007.2
20260508105046 44 171 2.6 4.3 0.00 0.00 0.00 61 1007.1
20260508104533 44 151 2.6 5.2 0.00 0.00 0.00 60 1007.0
20260508104028 45 161 2.6 3.5 0.00 0.00 0.00 60 1007.0
20260508103641 45 172 2.6 4.3 0.00 0.00 0.00 58 1006.8
20260508103127 44 154 2.6 4.3 0.00 0.00 0.00 58 1006.9
20260508102558 44 154 3.5 5.2 0.00 0.00 0.00 58 1006.8
20260508102045 44 179 2.6 3.5 0.00 0.00 0.00 56 1006.8
20260508101540 44 167 2.6 3.5 0.00 0.00 0.00 57 1006.8
20260508101027 44 130 2.6 3.5 0.00 0.00 0.00 58 1006.6
20260508100612 44 172 1.7 3.5 0.00 0.00 0.00 57 1006.6
20260508100107 44 157 2.6 3.5 0.00 0.00 0.00 57 1006.6
20260508095606 44 166 1.7 4.3 0.00 0.00 0.00 56 1006.6
20260508095052 44 125 1.7 4.3 0.00 0.00 0.00 56 1006.5
20260508094548 44 165 2.6 4.3 0.00 0.00 0.00 56 1006.5
20260508094115 44 145 1.7 3.5 0.00 0.00 0.00 57 1006.5
20260508093526 44 129 1.7 3.5 0.00 0.00 0.00 57 1006.5
20260508093118 44 180 1.7 3.5 0.00 0.00 0.00 57 1006.4
20260508092605 45 178 1.7 3.5 0.00 0.00 0.00 55 1006.4
20260508092119 45 186 1.7 3.5 0.00 0.00 0.00 55 1006.4
20260508091546 44 215 1.7 3.5 0.00 0.00 0.00 55 1006.2
20260508091034 44 193 1.7 3.5 0.00 0.00 0.00 56 1006.3
20260508090517 45 197 2.6 5.2 0.00 0.00 0.00 55 1006.3
20260508090107 45 198 2.6 5.2 0.00 0.00 0.00 54 1006.3
20260508085557 45 198 2.6 5.2 0.00 0.00 0.00 55 1006.2
20260508085043 45 185 3.5 5.2 0.00 0.00 0.00 56 1006.3
20260508084534 45 183 3.5 5.2 0.00 0.00 0.00 56 1006.1
20260508084021 45 195 2.6 5.2 0.00 0.00 0.00 55 1006.1
20260508083537 45 190 3.5 5.2 0.00 0.00 0.00 56 1006.0
20260508083109 45 153 1.7 3.5 0.00 0.00 0.00 55 1006.0
20260508082551 45 175 2.6 4.3 0.00 0.00 0.00 55 1005.9
20260508082017 44 206 1.7 3.5 0.00 0.00 0.00 56 1005.8
20260508081612 45 181 1.7 7.0 0.00 0.00 0.00 57 1005.9
20260508081055 44 189 3.5 7.0 0.00 0.00 0.00 56 1006.0
20260508080547 44 198 1.7 4.3 0.00 0.00 0.00 57 1005.9
20260508080052 44 177 3.5 7.0 0.00 0.00 0.00 57 1005.9
20260508075531 44 196 2.6 7.0 0.00 0.00 0.00 58 1005.9
20260508075022 43 202 3.5 5.2 0.00 0.00 0.00 59 1005.9
20260508074619 43 191 3.5 5.2 0.00 0.00 0.00 61 1005.8
20260508074106 42 208 3.5 7.0 0.00 0.00 0.00 63 1005.7
20260508073554 41 351 1.7 4.3 0.00 0.00 0.00 67 1005.7
20260508073043 41 191 1.7 5.2 0.00 0.00 0.00 67 1005.6
20260508072538 41 174 0.9 4.3 0.00 0.00 0.00 66 1005.5
20260508072027 41 138 1.7 4.3 0.00 0.00 0.00 67 1005.5
20260508071523 40 194 1.7 4.3 0.00 0.00 0.00 68 1005.4
20260508071110 40 187 2.6 4.3 0.00 0.00 0.00 71 1005.4
20260508070555 39 159 1.7 3.5 0.00 0.00 0.00 73 1005.3
20260508070110 39 133 2.6 4.3 0.00 0.00 0.00 74 1005.2
20260508065551 39 67 0.0 1.7 0.00 0.00 0.00 74 1005.0
20260508065035 38 56 0.9 1.7 0.00 0.00 0.00 76 1005.1
20260508064525 39 71 0.9 1.7 0.00 0.00 0.00 73 1005.2
20260508064115 39 117 0.9 1.7 0.00 0.00 0.00 74 1005.2
20260508063623 38 145 0.9 1.7 0.00 0.00 0.00 76 1004.9
20260508063050 37 132 0.9 1.7 0.00 0.00 0.00 79 1005.0
20260508062548 37 105 0.9 1.7 0.00 0.00 0.00 81 1005.0
20260508062037 37 127 0.9 1.7 0.00 0.00 0.00 84 1004.9
20260508061523 37 110 0.9 1.7 0.00 0.00 0.00 85 1004.8
20260508061016 37 78 0.9 1.7 0.00 0.00 0.00 84 1004.9
20260508060611 37 0.0 0.9 0.00 0.00 0.00 82 1004.9
20260508060057 38 104 0.9 1.7 0.00 0.00 0.00 81 1005.0
20260508055547 38 77 0.9 1.7 0.00 0.00 0.00 81 1005.1
20260508055042 38 0.0 0.9 0.00 0.00 0.00 80 1005.1
20260508054539 39 82 0.0 1.7 0.00 0.00 0.00 75 1005.0
20260508054028 39 0.0 0.9 0.00 0.00 0.00 76 1005.0
20260508053617 39 78 0.9 1.7 0.00 0.00 0.00 77 1004.9
20260508053115 39 78 0.9 1.7 0.00 0.00 0.00 78 1005.0
20260508052623 39 65 0.9 1.7 0.00 0.00 0.00 77 1005.0
20260508052051 39 81 0.9 1.7 0.00 0.00 0.00 77 1005.0
20260508051536 39 67 0.9 1.7 0.00 0.00 0.00 75 1005.2
20260508051024 40 63 0.0 1.7 0.00 0.00 0.00 72 1005.3
20260508050614 40 85 0.9 1.7 0.00 0.00 0.00 73 1005.3
20260508050107 40 96 1.7 1.7 0.00 0.00 0.00 71 1005.2
20260508045612 40 79 0.9 1.7 0.00 0.00 0.00 70 1005.2
20260508045045 40 87 0.9 1.7 0.00 0.00 0.00 70 1005.3
20260508044539 40 91 0.9 1.7 0.00 0.00 0.00 71 1005.2
20260508044024 40 0.0 0.9 0.00 0.00 0.00 69 1005.2
20260508043616 40 54 0.9 1.7 0.00 0.00 0.00 70 1005.3
20260508043106 40 76 0.9 1.7 0.00 0.00 0.00 71 1005.5
20260508042601 41 83 0.9 1.7 0.00 0.00 0.00 70 1005.4
20260508042052 41 47 0.9 1.7 0.00 0.00 0.00 70 1005.5
20260508041530 41 72 0.0 1.7 0.00 0.00 0.00 67 1005.4
20260508041048 41 104 0.0 1.7 0.00 0.00 0.00 66 1005.5
20260508040619 42 108 0.0 1.7 0.00 0.00 0.00 66 1005.6
20260508040108 42 0.0 1.7 0.00 0.00 0.00 66 1005.5
20260508035555 43 128 0.9 1.7 0.00 0.00 0.00 65 1005.5
20260508035043 43 47 0.9 1.7 0.00 0.00 0.00 66 1005.5
20260508034533 44 166 0.0 1.7 0.00 0.00 0.00 64 1005.6
20260508034032 44 161 0.9 1.7 0.00 0.00 0.00 64 1005.5
20260508033519 44 162 0.9 1.7 0.00 0.00 0.00 65 1005.5
20260508033115 44 175 0.9 1.7 0.00 0.00 0.00 65 1005.5
20260508032616 43 175 0.9 1.7 0.00 0.00 0.00 65 1005.5
20260508032131 42 175 0.9 1.7 0.00 0.00 0.00 66 1005.6
20260508031544 42 128 0.0 1.7 0.00 0.00 0.00 65 1005.5
20260508031039 43 124 0.9 1.7 0.00 0.00 0.00 63 1005.6
20260508030523 43 74 0.9 1.7 0.00 0.00 0.00 62 1005.4
20260508030112 44 76 0.9 1.7 0.00 0.00 0.00 59 1005.5
20260508025611 44 81 0.9 1.7 0.00 0.00 0.00 58 1005.4
20260508025056 44 74 0.9 1.7 0.00 0.00 0.00 58 1005.5
20260508024547 45 79 0.9 1.7 0.00 0.00 0.00 57 1005.5
20260508024042 45 70 0.9 1.7 0.00 0.00 0.00 57 1005.5
20260508023533 45 84 1.7 1.7 0.00 0.00 0.00 57 1005.4
20260508023023 45 79 1.7 1.7 0.00 0.00 0.00 57 1005.5
20260508022619 45 80 1.7 1.7 0.00 0.00 0.00 59 1005.5
20260508022109 46 86 1.7 1.7 0.00 0.00 0.00 59 1005.4
20260508021625 46 61 0.9 1.7 0.00 0.00 0.00 58 1005.3
20260508021059 47 48 0.9 2.6 0.00 0.00 0.00 61 1005.4
20260508020543 48 35 0.9 2.6 0.00 0.00 0.00 55 1005.4
20260508020033 48 0.0 1.7 0.00 0.00 0.00 54 1005.4
20260508015526 48 175 0.9 2.6 0.00 0.00 0.00 54 1005.5
20260508015019 48 179 0.9 1.7 0.00 0.00 0.00 54 1005.5
20260508014628 47 184 0.9 1.7 0.00 0.00 0.00 55 1005.4
20260508014056 46 180 0.0 1.7 0.00 0.00 0.00 57 1005.5
20260508013604 46 125 0.0 1.7 0.00 0.00 0.00 59 1005.5
20260508013032 46 108 0.0 1.7 0.00 0.00 0.00 57 1005.5
20260508012520 47 0.0 1.7 0.00 0.00 0.00 59 1005.4
20260508012115 48 62 0.9 0.9 0.00 0.00 0.00 57 1005.2
20260508011624 49 0.0 0.9 0.00 0.00 0.00 52 1005.2
20260508011051 49 114 0.9 1.7 0.00 0.00 0.00 52 1005.2
20260508010539 49 169 0.0 1.7 0.00 0.00 0.00 51 1005.2
20260508010027 49 169 0.9 1.7 0.00 0.00 0.00 51 1004.9
20260508005619 49 156 0.9 1.7 0.00 0.00 0.00 50 1004.9
20260508005107 49 128 0.9 1.7 0.00 0.00 0.00 49 1004.9
20260508004615 50 125 0.9 1.7 0.00 0.00 0.00 49 1004.8
20260508004043 50 138 0.9 1.7 0.00 0.00 0.00 49 1004.6
20260508003531 51 0.0 1.7 0.00 0.00 0.00 48 1004.5
20260508003019 51 198 0.9 3.5 0.00 0.00 0.00 48 1004.6
20260508002603 51 200 0.9 1.7 0.00 0.00 0.00 48 1004.6
20260508002053 52 130 0.9 2.6 0.00 0.00 0.00 46 1004.3
20260508001549 52 184 1.7 3.5 0.00 0.00 0.00 46 1004.2
20260508001042 52 149 0.9 2.6 0.00 0.00 0.00 46 1004.2
20260508000531 53 68 0.9 2.6 0.00 0.00 0.00 46 1004.2
20260508000028 53 61 0.9 1.7 0.00 0.00 0.00 45 1004.0
20260507235617 54 210 0.9 3.5 0.00 0.00 0.00 44 1004.0
20260507235104 54 198 1.7 4.3 0.00 0.00 0.00 42 1003.9
20260507234552 55 181 1.7 5.2 0.00 0.00 0.00 42 1003.8
20260507234040 55 196 0.9 7.0 0.00 0.00 0.00 41 1003.9
20260507233528 55 202 2.6 5.2 0.00 0.00 0.00 39 1003.8
20260507233016 56 211 2.6 5.2 0.00 0.00 0.00 38 1003.8
20260507232612 56 207 3.5 5.2 0.00 0.00 0.00 38 1003.8
20260507232059 57 216 2.6 6.1 0.00 0.00 0.00 38 1003.7
20260507231547 56 210 3.5 6.1 0.00 0.00 0.00 37 1003.7
20260507231029 56 210 2.6 7.8 0.00 0.00 0.00 37 1003.7
20260507230523 57 198 3.5 7.8 0.00 0.00 0.00 39 1003.7
20260507230115 57 216 2.6 6.1 0.00 0.00 0.00 39 1003.8
20260507225604 57 205 2.6 4.3 0.00 0.00 0.00 39 1003.6
20260507225052 57 205 2.6 9.6 0.00 0.00 0.00 37 1003.7
20260507224547 57 212 5.2 7.8 0.00 0.00 0.00 37 1003.6
20260507224038 57 201 3.5 6.1 0.00 0.00 0.00 38 1003.6
20260507223531 58 214 0.9 4.3 0.00 0.00 0.00 39 1003.7
20260507223021 58 197 2.6 10.4 0.00 0.00 0.00 36 1003.4
20260507222613 58 194 3.5 10.4 0.00 0.00 0.00 38 1003.5
20260507222101 58 172 0.9 5.2 0.00 0.00 0.00 37 1003.5
20260507221555 58 213 3.5 10.4 0.00 0.00 0.00 35 1003.4
20260507221044 58 234 3.5 6.1 0.00 0.00 0.00 36 1003.5
20260507220540 58 206 5.2 10.4 0.00 0.00 0.00 36 1003.5
20260507220033 58 200 4.3 8.7 0.00 0.00 0.00 36 1003.4
20260507215528 58 208 5.2 9.6 0.00 0.00 0.00 35 1003.5
20260507215123 58 210 5.2 14.8 0.00 0.00 0.00 36 1003.5
20260507214605 59 212 7.8 14.8 0.00 0.00 0.00 36 1003.4
20260507214059 59 204 5.2 10.4 0.00 0.00 0.00 35 1003.5
20260507213621 59 219 4.3 9.6 0.00 0.00 0.00 37 1003.5
20260507213049 59 237 2.6 7.8 0.00 0.00 0.00 37 1003.4
20260507212524 59 164 3.5 13.0 0.00 0.00 0.00 37 1003.4
20260507212019 60 210 4.3 13.0 0.00 0.00 0.00 36 1003.2
20260507211635 60 202 3.5 11.3 0.00 0.00 0.00 36 1003.2
20260507211109 60 201 5.2 8.7 0.00 0.00 0.00 38 1003.1
20260507210604 61 110 3.5 7.8 0.00 0.00 0.00 37 1003.1
20260507210100 61 232 1.7 7.8 0.00 0.00 0.00 36 1003.0
20260507205547 61 328 2.6 6.1 0.00 0.00 0.00 38 1002.9
20260507205035 60 279 1.7 14.8 0.00 0.00 0.00 38 1002.9
20260507204523 61 208 3.5 14.8 0.00 0.00 0.00 36 1003.0
20260507204132 61 207 5.2 9.6 0.00 0.00 0.00 37 1002.9